WAT1495 KIAD-KORL

Flight info

Callsign WAT1495
Flight time 1h 47m
Altitude 40000
Route JDUBB4 RRSIN GSO Q83 ROYCO Q85 LPERD TTHOR3
Aircraft CL60/M-SADE3FGHIJ3J4J7P2RWXY/HB1D1

Departure

Time 2026-05-05 00:10
Airport Washington Dulles International Airport (KIAD)

Arrival

Time 2026-05-05 01:58
Airport Orlando Executive Airport (KORL)
Time Latitude Longitude Altitude Speed Heading
2026-05-04 23:48 38.94220 -77.45058 296 ft 0 kts
2026-05-05 00:01 38.94214 -77.45058 296 ft 2 kts
2026-05-05 00:02 38.94198 -77.45058 296 ft 2 kts
2026-05-05 00:02 38.94183 -77.45058 296 ft 2 kts
2026-05-05 00:02 38.94166 -77.45058 296 ft 2 kts
2026-05-05 00:02 38.94151 -77.45058 296 ft 2 kts
2026-05-05 00:03 38.94139 -77.45058 296 ft 0 kts
2026-05-05 00:03 38.94128 -77.45055 296 ft 2 kts 314°
2026-05-05 00:03 38.94122 -77.45040 296 ft 1 kts 267°
2026-05-05 00:03 38.94123 -77.45032 296 ft 0 kts 270°
2026-05-05 00:05 38.94122 -77.45047 296 ft 7 kts 261°
2026-05-05 00:05 38.94113 -77.45154 296 ft 14 kts 270°
2026-05-05 00:06 38.94113 -77.45293 293 ft 16 kts 269°
2026-05-05 00:06 38.94112 -77.45442 293 ft 16 kts 270°
2026-05-05 00:06 38.94105 -77.45566 293 ft 13 kts 241°
2026-05-05 00:06 38.94015 -77.45609 292 ft 15 kts 182°
2026-05-05 00:07 38.93901 -77.45612 290 ft 16 kts 181°
2026-05-05 00:07 38.93782 -77.45615 289 ft 17 kts 177°
2026-05-05 00:07 38.93678 -77.45545 287 ft 15 kts 129°
2026-05-05 00:07 38.93590 -77.45496 286 ft 16 kts 198°
2026-05-05 00:08 38.93494 -77.45543 284 ft 10 kts 200°
2026-05-05 00:08 38.93469 -77.45554 283 ft 0 kts 199°
2026-05-05 00:09 38.93464 -77.45557 283 ft 3 kts 200°
2026-05-05 00:09 38.93411 -77.45585 282 ft 10 kts 205°
2026-05-05 00:09 38.93383 -77.45664 282 ft 11 kts 288°
2026-05-05 00:09 38.93465 -77.45950 283 ft 71 kts 290°
2026-05-05 00:10 38.93720 -77.46839 294 ft 140 kts 292°
2026-05-05 00:10 38.94143 -77.48161 620 ft 169 kts 292°
2026-05-05 00:10 38.94901 -77.49386 1236 ft 188 kts 310°
2026-05-05 00:10 38.95900 -77.50545 1918 ft 203 kts 311°
2026-05-05 00:11 38.97008 -77.51801 2551 ft 225 kts 311°
2026-05-05 00:11 38.98205 -77.53172 3247 ft 244 kts 312°
2026-05-05 00:11 38.99351 -77.54829 4023 ft 253 kts 292°
2026-05-05 00:11 38.99589 -77.56948 5157 ft 247 kts 259°
2026-05-05 00:12 38.98833 -77.58910 6255 ft 254 kts 233°
2026-05-05 00:12 38.97404 -77.60283 7206 ft 271 kts 208°
2026-05-05 00:12 38.95528 -77.60665 8194 ft 287 kts 182°
2026-05-05 00:12 38.93536 -77.60455 9191 ft 292 kts 182°
2026-05-05 00:13 38.91508 -77.60275 10146 ft 297 kts 182°
2026-05-05 00:13 38.89428 -77.60114 11090 ft 301 kts 182°
2026-05-05 00:13 38.87356 -77.59964 11990 ft 306 kts 182°
2026-05-05 00:13 38.85216 -77.59812 12853 ft 311 kts 182°
2026-05-05 00:14 38.83036 -77.59660 13716 ft 316 kts 182°
2026-05-05 00:14 38.80840 -77.59504 14568 ft 320 kts 182°
2026-05-05 00:14 38.78631 -77.59347 15420 ft 323 kts 182°
2026-05-05 00:14 38.76370 -77.59189 16259 ft 326 kts 182°
2026-05-05 00:15 38.74107 -77.59029 17042 ft 329 kts 182°
2026-05-05 00:15 38.71844 -77.58869 17742 ft 333 kts 182°
2026-05-05 00:15 38.69503 -77.58704 18455 ft 336 kts 182°
2026-05-05 00:15 38.67191 -77.58541 19118 ft 339 kts 181°
2026-05-05 00:16 38.64816 -77.58375 19767 ft 342 kts 181°
2026-05-05 00:16 38.62425 -77.58208 20403 ft 345 kts 181°
2026-05-05 00:16 38.60042 -77.58040 21019 ft 348 kts 181°
2026-05-05 00:16 38.57605 -77.57870 21634 ft 352 kts 181°
2026-05-05 00:17 38.55145 -77.57697 22245 ft 355 kts 181°
2026-05-05 00:17 38.52678 -77.57525 22830 ft 358 kts 181°
2026-05-05 00:17 38.50205 -77.57352 23413 ft 362 kts 181°
2026-05-05 00:17 38.47677 -77.57176 23984 ft 365 kts 181°
2026-05-05 00:18 38.45112 -77.56998 24540 ft 368 kts 181°
2026-05-05 00:18 38.42564 -77.56827 25074 ft 371 kts 183°
2026-05-05 00:18 38.40025 -77.57133 25538 ft 367 kts 200°
2026-05-05 00:18 38.37678 -77.58317 26031 ft 361 kts 215°
2026-05-05 00:19 38.35584 -77.60051 26530 ft 361 kts 219°
2026-05-05 00:19 38.33516 -77.61874 26985 ft 365 kts 219°
2026-05-05 00:19 38.31408 -77.63726 27451 ft 367 kts 220°
2026-05-05 00:19 38.29356 -77.65664 27899 ft 369 kts 222°
2026-05-05 00:20 38.27395 -77.67732 28342 ft 370 kts 224°
2026-05-05 00:20 38.25415 -77.69859 28765 ft 374 kts 224°
2026-05-05 00:20 38.23432 -77.71989 29184 ft 376 kts 224°
2026-05-05 00:20 38.21421 -77.74147 29599 ft 379 kts 224°
2026-05-05 00:21 38.19412 -77.76301 29998 ft 382 kts 224°
2026-05-05 00:21 38.17394 -77.78462 30407 ft 383 kts 224°
2026-05-05 00:21 38.15350 -77.80649 30771 ft 386 kts 224°
2026-05-05 00:21 38.13290 -77.82850 31106 ft 388 kts 224°
2026-05-05 00:22 38.11219 -77.85061 31432 ft 390 kts 224°
2026-05-05 00:22 38.09143 -77.87279 31732 ft 392 kts 224°
2026-05-05 00:22 38.07081 -77.89477 32041 ft 394 kts 224°
2026-05-05 00:22 38.04980 -77.91715 32328 ft 396 kts 224°
2026-05-05 00:23 38.02848 -77.93980 32625 ft 397 kts 224°
2026-05-05 00:23 38.00750 -77.96210 32907 ft 399 kts 224°
2026-05-05 00:23 37.98613 -77.98476 33187 ft 401 kts 225°
2026-05-05 00:23 37.96479 -78.00742 33462 ft 402 kts 225°
2026-05-05 00:24 37.94324 -78.03028 33714 ft 404 kts 225°
2026-05-05 00:24 37.92168 -78.05314 33839 ft 409 kts 225°
2026-05-05 00:24 37.89978 -78.07635 33954 ft 414 kts 225°
2026-05-05 00:24 37.87749 -78.09997 34063 ft 419 kts 225°
2026-05-05 00:25 37.85526 -78.12348 34170 ft 424 kts 225°
2026-05-05 00:25 37.83259 -78.14745 34275 ft 428 kts 225°
2026-05-05 00:25 37.80967 -78.17164 34375 ft 432 kts 225°
2026-05-05 00:26 37.76294 -78.22093 34565 ft 440 kts 224°
2026-05-05 00:26 37.73949 -78.24561 34740 ft 440 kts 224°
2026-05-05 00:26 37.71630 -78.27000 34957 ft 440 kts 224°
2026-05-05 00:26 37.69272 -78.29478 35165 ft 439 kts 224°
2026-05-05 00:27 37.66918 -78.31950 35381 ft 438 kts 224°
2026-05-05 00:27 37.64578 -78.34405 35593 ft 437 kts 224°
2026-05-05 00:27 37.62255 -78.36842 35781 ft 437 kts 224°
2026-05-05 00:27 37.59940 -78.39271 35963 ft 437 kts 224°
2026-05-05 00:28 37.57594 -78.41726 36133 ft 436 kts 224°
2026-05-05 00:28 37.55284 -78.44144 36304 ft 436 kts 224°
2026-05-05 00:28 37.52943 -78.46591 36526 ft 435 kts 224°
2026-05-05 00:28 37.50614 -78.49024 36752 ft 434 kts 224°
2026-05-05 00:29 37.48301 -78.51437 36958 ft 434 kts 224°
2026-05-05 00:29 37.45974 -78.53863 37146 ft 433 kts 224°
2026-05-05 00:29 37.43646 -78.56271 37328 ft 433 kts 224°
2026-05-05 00:29 37.41328 -78.58659 37510 ft 433 kts 224°
2026-05-05 00:30 37.39007 -78.61050 37673 ft 433 kts 224°
2026-05-05 00:30 37.36682 -78.63444 37820 ft 433 kts 224°
2026-05-05 00:30 37.34371 -78.65821 37966 ft 433 kts 223°
2026-05-05 00:31 37.29682 -78.70644 37978 ft 438 kts 223°
2026-05-05 00:31 37.24937 -78.75517 37976 ft 443 kts 223°
2026-05-05 00:32 37.20172 -78.80403 37986 ft 447 kts 223°
2026-05-05 00:32 37.15356 -78.85332 37982 ft 449 kts 223°
2026-05-05 00:33 37.10525 -78.90264 37994 ft 439 kts 224°
2026-05-05 00:33 37.05850 -78.95036 37987 ft 436 kts 224°
2026-05-05 00:34 37.01146 -78.99831 37985 ft 436 kts 224°
2026-05-05 00:34 36.96441 -79.04620 37983 ft 436 kts 224°
2026-05-05 00:35 36.91788 -79.09368 37980 ft 435 kts 224°
2026-05-05 00:35 36.87102 -79.14178 37985 ft 435 kts 224°
2026-05-05 00:36 36.82429 -79.18967 37989 ft 434 kts 224°
2026-05-05 00:36 36.77789 -79.23711 37981 ft 433 kts 224°
2026-05-05 00:37 36.73111 -79.28489 37988 ft 433 kts 224°
2026-05-05 00:37 36.68460 -79.33230 37992 ft 433 kts 224°
2026-05-05 00:38 36.63827 -79.37946 37999 ft 432 kts 224°
2026-05-05 00:38 36.59175 -79.42673 37995 ft 432 kts 224°
2026-05-05 00:39 36.54539 -79.47377 37993 ft 432 kts 224°
2026-05-05 00:39 36.49882 -79.52093 37995 ft 431 kts 224°
2026-05-05 00:40 36.45219 -79.56809 37995 ft 432 kts 224°
2026-05-05 00:40 36.40572 -79.61502 37993 ft 431 kts 224°
2026-05-05 00:41 36.35930 -79.66180 37999 ft 431 kts 224°
2026-05-05 00:41 36.31318 -79.70824 38000 ft 431 kts 224°
2026-05-05 00:42 36.26659 -79.75507 38001 ft 431 kts 224°
2026-05-05 00:42 36.22016 -79.80168 38005 ft 431 kts 224°
2026-05-05 00:43 36.17371 -79.84823 38003 ft 430 kts 224°
2026-05-05 00:43 36.12709 -79.89487 38001 ft 431 kts 224°
2026-05-05 00:44 36.07973 -79.93985 38017 ft 434 kts 220°
2026-05-05 00:44 36.02810 -79.97933 37999 ft 437 kts 214°
2026-05-05 00:45 35.97309 -80.01184 38011 ft 441 kts 208°
2026-05-05 00:45 35.91599 -80.04013 38003 ft 442 kts 207°
2026-05-05 00:46 35.85912 -80.06825 38008 ft 442 kts 207°
2026-05-05 00:46 35.80230 -80.09628 38011 ft 442 kts 207°
2026-05-05 00:47 35.74521 -80.12440 38006 ft 441 kts 207°
2026-05-05 00:47 35.68820 -80.15246 38007 ft 441 kts 207°
2026-05-05 00:48 35.63138 -80.18037 38006 ft 441 kts 207°
2026-05-05 00:48 35.57465 -80.20819 38016 ft 441 kts 207°
2026-05-05 00:49 35.51749 -80.23621 38020 ft 441 kts 207°
2026-05-05 00:49 35.46075 -80.26393 38021 ft 441 kts 207°
2026-05-05 00:50 35.40260 -80.28924 38015 ft 445 kts 202°
2026-05-05 00:50 35.34220 -80.30686 38021 ft 450 kts 196°
2026-05-05 00:51 35.28059 -80.31876 38010 ft 451 kts 194°
2026-05-05 00:51 35.21849 -80.33050 38014 ft 451 kts 195°
2026-05-05 00:52 35.15654 -80.34223 38012 ft 450 kts 194°
2026-05-05 00:52 35.09460 -80.35394 38007 ft 450 kts 194°
2026-05-05 00:53 35.03318 -80.36553 38010 ft 450 kts 194°
2026-05-05 00:53 34.97096 -80.37726 38018 ft 450 kts 194°
2026-05-05 00:54 34.90959 -80.38882 38011 ft 450 kts 195°
2026-05-05 00:54 34.84771 -80.40046 38013 ft 450 kts 195°
2026-05-05 00:55 34.78572 -80.41209 38017 ft 450 kts 195°
2026-05-05 00:55 34.72410 -80.42364 38024 ft 449 kts 195°
2026-05-05 00:56 34.66225 -80.43522 38020 ft 450 kts 195°
2026-05-05 00:56 34.60036 -80.44679 38024 ft 450 kts 195°
2026-05-05 00:57 34.53823 -80.45838 38026 ft 450 kts 194°
2026-05-05 00:57 34.47651 -80.46989 38031 ft 451 kts 195°
2026-05-05 00:58 34.41424 -80.48148 38038 ft 451 kts 194°
2026-05-05 00:58 34.35235 -80.49298 38046 ft 451 kts 194°
2026-05-05 00:59 34.29056 -80.50445 38039 ft 451 kts 194°
2026-05-05 00:59 34.22907 -80.51916 38044 ft 448 kts 200°
2026-05-05 01:00 34.16882 -80.53721 38039 ft 447 kts 200°
2026-05-05 01:00 34.10823 -80.55537 38042 ft 448 kts 200°
2026-05-05 01:01 34.04803 -80.57340 38042 ft 447 kts 200°
2026-05-05 01:01 33.98775 -80.59139 38041 ft 447 kts 200°
2026-05-05 01:02 33.92711 -80.60950 38034 ft 447 kts 200°
2026-05-05 01:02 33.86712 -80.62736 38043 ft 447 kts 200°
2026-05-05 01:03 33.80636 -80.64543 38040 ft 448 kts 200°
2026-05-05 01:03 33.74596 -80.66339 38039 ft 449 kts 199°
2026-05-05 01:04 33.68538 -80.68137 38026 ft 449 kts 199°
2026-05-05 01:04 33.59446 -80.70831 38038 ft 449 kts 200°
2026-05-05 01:05 33.53404 -80.72617 38049 ft 449 kts 199°
2026-05-05 01:05 33.47342 -80.74402 38056 ft 449 kts 200°
2026-05-05 01:06 33.41272 -80.76183 38041 ft 450 kts 200°
2026-05-05 01:06 33.35205 -80.77962 38060 ft 448 kts 200°
2026-05-05 01:07 33.29129 -80.79744 38045 ft 449 kts 200°
2026-05-05 01:07 33.23092 -80.81512 38064 ft 449 kts 200°
2026-05-05 01:08 33.17008 -80.83292 38057 ft 448 kts 200°
2026-05-05 01:08 33.10951 -80.85060 38055 ft 449 kts 200°
2026-05-05 01:09 33.04903 -80.86825 38064 ft 449 kts 200°
2026-05-05 01:09 32.98826 -80.88593 38059 ft 449 kts 200°
2026-05-05 01:10 32.92765 -80.90356 38071 ft 450 kts 200°
2026-05-05 01:10 32.86675 -80.92125 38068 ft 450 kts 200°
2026-05-05 01:11 32.80622 -80.93881 38065 ft 449 kts 200°
2026-05-05 01:11 32.74536 -80.95644 38073 ft 450 kts 200°
2026-05-05 01:12 32.68441 -80.97407 38074 ft 449 kts 200°
2026-05-05 01:12 32.62411 -80.99149 38077 ft 445 kts 201°
2026-05-05 01:13 32.56352 -81.00809 38075 ft 452 kts 198°
2026-05-05 01:13 32.50066 -81.01807 38079 ft 459 kts 192°
2026-05-05 01:14 32.43654 -81.02053 38074 ft 465 kts 188°
2026-05-05 01:14 32.37167 -81.02161 38084 ft 464 kts 188°
2026-05-05 01:15 32.30745 -81.02274 38085 ft 464 kts 188°
2026-05-05 01:15 32.24298 -81.02387 38082 ft 462 kts 188°
2026-05-05 01:16 32.17851 -81.02501 38079 ft 463 kts 188°
2026-05-05 01:16 32.11419 -81.02615 38084 ft 463 kts 189°
2026-05-05 01:17 32.04960 -81.02730 38085 ft 466 kts 189°
2026-05-05 01:17 31.98508 -81.02847 38087 ft 464 kts 189°
2026-05-05 01:18 31.92061 -81.03021 38090 ft 462 kts 189°
2026-05-05 01:18 31.85653 -81.03204 38086 ft 462 kts 189°
2026-05-05 01:19 31.79217 -81.03384 38068 ft 462 kts 189°
2026-05-05 01:19 31.72781 -81.03561 38038 ft 463 kts 189°
2026-05-05 01:20 31.66360 -81.03809 38100 ft 460 kts 193°
2026-05-05 01:20 31.60113 -81.04905 38094 ft 449 kts 201°
2026-05-05 01:21 31.54193 -81.07011 38091 ft 438 kts 210°
2026-05-05 01:21 31.48738 -81.09973 38092 ft 432 kts 216°
2026-05-05 01:22 31.43444 -81.13230 37859 ft 426 kts 216°
2026-05-05 01:22 31.40795 -81.14855 37215 ft 427 kts 216°
2026-05-05 01:22 31.38195 -81.16452 36395 ft 430 kts 216°
2026-05-05 01:23 31.35537 -81.18053 35553 ft 434 kts 215°
2026-05-05 01:23 31.32835 -81.19657 34764 ft 436 kts 215°
2026-05-05 01:23 31.30119 -81.21262 34260 ft 437 kts 215°
2026-05-05 01:23 31.27400 -81.22872 34075 ft 439 kts 215°
2026-05-05 01:24 31.21724 -81.25626 34063 ft 449 kts 207°
2026-05-05 01:24 31.15586 -81.27452 34061 ft 460 kts 199°
2026-05-05 01:25 31.09152 -81.28213 34066 ft 471 kts 190°
2026-05-05 01:25 31.02574 -81.28226 34078 ft 474 kts 188°
2026-05-05 01:26 30.95973 -81.28192 34075 ft 472 kts 188°
2026-05-05 01:26 30.89412 -81.28170 34075 ft 474 kts 188°
2026-05-05 01:27 30.82823 -81.28153 34074 ft 475 kts 188°
2026-05-05 01:27 30.76179 -81.28140 34072 ft 475 kts 188°
2026-05-05 01:28 30.69582 -81.28126 34074 ft 476 kts 188°
2026-05-05 01:28 30.62935 -81.28111 34082 ft 475 kts 188°
2026-05-05 01:29 30.56304 -81.27912 34078 ft 478 kts 186°
2026-05-05 01:29 30.49667 -81.27567 34075 ft 479 kts 186°
2026-05-05 01:30 30.43019 -81.27226 34075 ft 479 kts 185°
2026-05-05 01:30 30.36348 -81.26884 34074 ft 480 kts 185°
2026-05-05 01:31 30.29668 -81.26542 34077 ft 481 kts 185°
2026-05-05 01:31 30.22991 -81.26169 34076 ft 480 kts 185°
2026-05-05 01:32 30.16392 -81.25748 33746 ft 465 kts 185°
2026-05-05 01:32 30.13157 -81.25538 32580 ft 462 kts 185°
2026-05-05 01:32 30.09991 -81.25345 30744 ft 472 kts 185°
2026-05-05 01:33 30.06713 -81.25156 28615 ft 481 kts 184°
2026-05-05 01:33 30.03380 -81.24965 26442 ft 486 kts 183°
2026-05-05 01:33 30.00091 -81.24773 24187 ft 488 kts 182°
2026-05-05 01:33 29.96754 -81.24568 21989 ft 485 kts 181°
2026-05-05 01:34 29.93422 -81.24354 20261 ft 471 kts 180°
2026-05-05 01:34 29.90239 -81.24168 18740 ft 454 kts 181°
2026-05-05 01:34 29.87162 -81.24049 17187 ft 441 kts 181°
2026-05-05 01:34 29.84178 -81.23953 15614 ft 431 kts 180°
2026-05-05 01:35 29.81229 -81.23859 14015 ft 423 kts 180°
2026-05-05 01:35 29.78328 -81.23761 12417 ft 415 kts 179°
2026-05-05 01:35 29.75497 -81.23659 10941 ft 406 kts 179°
2026-05-05 01:35 29.72716 -81.23553 9764 ft 400 kts 179°
2026-05-05 01:36 29.69987 -81.23453 8912 ft 396 kts 179°
2026-05-05 01:36 29.67228 -81.23353 8287 ft 393 kts 179°
2026-05-05 01:36 29.64525 -81.23234 8005 ft 390 kts 178°
2026-05-05 01:36 29.61805 -81.23081 7976 ft 390 kts 178°
2026-05-05 01:37 29.59077 -81.22924 7974 ft 390 kts 178°
2026-05-05 01:37 29.56364 -81.22767 7967 ft 390 kts 178°
2026-05-05 01:37 29.53650 -81.22615 7978 ft 390 kts 178°
2026-05-05 01:37 29.50915 -81.22462 7951 ft 390 kts 178°
2026-05-05 01:38 29.48314 -81.22315 7951 ft 366 kts 178°
2026-05-05 01:38 29.45812 -81.22174 7966 ft 343 kts 178°
2026-05-05 01:38 29.43513 -81.22047 7971 ft 323 kts 178°
2026-05-05 01:38 29.41334 -81.21927 7974 ft 305 kts 179°
2026-05-05 01:39 29.39248 -81.21812 7976 ft 288 kts 179°
2026-05-05 01:39 29.37265 -81.21703 7978 ft 285 kts 179°
2026-05-05 01:39 29.35276 -81.21608 7981 ft 285 kts 179°
2026-05-05 01:39 29.33305 -81.21529 7915 ft 281 kts 179°
2026-05-05 01:40 29.31350 -81.21454 7543 ft 281 kts 179°
2026-05-05 01:40 29.29414 -81.21375 7161 ft 280 kts 179°
2026-05-05 01:40 29.27483 -81.21295 6990 ft 278 kts 179°
2026-05-05 01:40 29.25517 -81.21215 6990 ft 279 kts 179°
2026-05-05 01:41 29.23571 -81.21118 6991 ft 280 kts 178°
2026-05-05 01:41 29.21623 -81.20986 6989 ft 280 kts 178°
2026-05-05 01:41 29.19698 -81.20850 6988 ft 280 kts 178°
2026-05-05 01:41 29.17726 -81.20712 6990 ft 280 kts 178°
2026-05-05 01:42 29.15794 -81.20579 6988 ft 279 kts 178°
2026-05-05 01:42 29.13851 -81.20446 6986 ft 279 kts 178°
2026-05-05 01:42 29.11904 -81.20320 6986 ft 279 kts 179°
2026-05-05 01:42 29.09973 -81.20286 6979 ft 277 kts 180°
2026-05-05 01:43 29.08044 -81.20268 6711 ft 275 kts 181°
2026-05-05 01:43 29.06125 -81.20252 6305 ft 275 kts 181°
2026-05-05 01:43 29.04223 -81.20237 5962 ft 274 kts 181°
2026-05-05 01:43 29.02312 -81.20392 5620 ft 271 kts 189°
2026-05-05 01:44 29.00493 -81.20839 5278 ft 270 kts 193°
2026-05-05 01:44 28.98687 -81.21388 5009 ft 267 kts 194°
2026-05-05 01:44 28.96893 -81.21935 4978 ft 259 kts 194°
2026-05-05 01:44 28.95188 -81.22455 4973 ft 244 kts 194°
2026-05-05 01:45 28.93600 -81.22946 4969 ft 230 kts 194°
2026-05-05 01:45 28.92057 -81.23426 4974 ft 228 kts 194°
2026-05-05 01:45 28.90520 -81.23899 4978 ft 228 kts 194°
2026-05-05 01:45 28.88991 -81.24365 4980 ft 227 kts 194°
2026-05-05 01:46 28.87465 -81.24862 4976 ft 227 kts 202°
2026-05-05 01:46 28.86147 -81.25829 4975 ft 227 kts 219°
2026-05-05 01:46 28.84985 -81.27016 4775 ft 225 kts 222°
2026-05-05 01:46 28.83840 -81.28263 4437 ft 228 kts 223°
2026-05-05 01:47 28.82696 -81.29536 4123 ft 228 kts 223°
2026-05-05 01:47 28.81577 -81.30795 3831 ft 229 kts 223°
2026-05-05 01:47 28.80451 -81.32082 3528 ft 229 kts 223°
2026-05-05 01:47 28.79324 -81.33392 3223 ft 230 kts 223°
2026-05-05 01:48 28.78223 -81.34688 3002 ft 229 kts 223°
2026-05-05 01:48 28.77109 -81.36004 2984 ft 230 kts 223°
2026-05-05 01:48 28.76005 -81.37309 2980 ft 230 kts 223°
2026-05-05 01:48 28.74882 -81.38645 2981 ft 230 kts 223°
2026-05-05 01:49 28.73782 -81.39951 2974 ft 225 kts 223°
2026-05-05 01:49 28.72717 -81.41213 3007 ft 218 kts 223°
2026-05-05 01:49 28.71669 -81.42460 3032 ft 217 kts 223°
2026-05-05 01:49 28.70624 -81.43707 3000 ft 217 kts 223°
2026-05-05 01:50 28.69589 -81.44952 2988 ft 217 kts 223°
2026-05-05 01:50 28.68546 -81.46207 2983 ft 217 kts 223°
2026-05-05 01:50 28.67509 -81.47450 2981 ft 217 kts 223°
2026-05-05 01:50 28.66477 -81.48683 2979 ft 217 kts 223°
2026-05-05 01:51 28.65419 -81.49949 2978 ft 218 kts 223°
2026-05-05 01:51 28.64269 -81.51015 2955 ft 212 kts 201°
2026-05-05 01:51 28.62881 -81.51438 2794 ft 199 kts 185°
2026-05-05 01:51 28.61563 -81.51675 2639 ft 188 kts 184°
2026-05-05 01:52 28.60266 -81.51899 2326 ft 186 kts 183°
2026-05-05 01:52 28.59006 -81.52125 2036 ft 184 kts 183°
2026-05-05 01:52 28.57739 -81.52170 1979 ft 177 kts 163°
2026-05-05 01:52 28.56568 -81.51765 1985 ft 176 kts 155°
2026-05-05 01:53 28.55441 -81.51284 1971 ft 164 kts 153°
2026-05-05 01:53 28.54423 -81.50854 1944 ft 148 kts 153°
2026-05-05 01:53 28.53469 -81.50455 1965 ft 146 kts 152°
2026-05-05 01:53 28.52555 -81.49955 1978 ft 142 kts 140°
2026-05-05 01:54 28.51846 -81.49206 1989 ft 138 kts 123°
2026-05-05 01:54 28.51273 -81.48334 1912 ft 138 kts 123°
2026-05-05 01:54 28.50704 -81.47456 1819 ft 137 kts 117°
2026-05-05 01:54 28.50383 -81.46446 1690 ft 134 kts 100°
2026-05-05 01:55 28.50320 -81.45402 1563 ft 134 kts 88°
2026-05-05 01:55 28.50461 -81.44344 1440 ft 136 kts 81°
2026-05-05 01:55 28.50703 -81.43291 1329 ft 137 kts 75°
2026-05-05 01:55 28.51061 -81.42279 1163 ft 139 kts 64°
2026-05-05 01:56 28.51501 -81.41307 1045 ft 139 kts 66°
2026-05-05 01:56 28.51877 -81.40283 925 ft 140 kts 72°
2026-05-05 01:56 28.52236 -81.39262 790 ft 140 kts 67°
2026-05-05 01:56 28.52648 -81.38237 698 ft 141 kts 66°
2026-05-05 01:57 28.53036 -81.37213 570 ft 141 kts 67°
2026-05-05 01:57 28.53412 -81.36211 428 ft 133 kts 65°
2026-05-05 01:57 28.53768 -81.35281 283 ft 128 kts 64°
2026-05-05 01:57 28.54118 -81.34341 186 ft 128 kts 63°
2026-05-05 01:58 28.54469 -81.33469 109 ft 96 kts 65°
2026-05-05 01:58 28.54591 -81.33161 112 ft 20 kts 31°
2026-05-05 01:58 28.54681 -81.33157 113 ft 5 kts 352°
2026-05-05 01:58 28.54691 -81.33159 113 ft 0 kts 351°
2026-05-05 01:59 28.54697 -81.33160 113 ft 5 kts 349°
2026-05-05 01:59 28.54766 -81.33173 113 ft 11 kts 353°
2026-05-05 01:59 28.54844 -81.33160 113 ft 12 kts 25°
2026-05-05 02:00 28.54897 -81.33090 113 ft 9 kts 76°
2026-05-05 02:00 28.54886 -81.33058 113 ft 0 kts 162°